CW3468 Weather Reports


Display with metric or nautical units.
time (UTC)temp
F
wind
direction
speed
MPH
gust
MPH
rain 1hr
in
rain 24hr
in
rain mn
in
humidity
%
barometer
mb
20260509023611 74 157 0.0 0.0 0.00 0.00 0.00 85 1011.3
20260509022628 74 159 0.0 0.0 0.00 0.00 0.00 84 1011.3
20260509021625 75 158 0.0 2.0 0.00 0.00 0.00 84 1011.1
20260509020621 75 159 1.0 3.0 0.00 0.00 0.00 82 1010.8
20260509015616 75 117 1.0 4.0 0.00 0.00 0.00 83 1010.6
20260509014613 76 171 0.0 2.0 0.00 0.00 0.00 81 1010.5
20260509013611 77 138 1.0 4.0 0.00 0.00 0.00 81 1010.4
20260509012628 76 134 1.0 3.0 0.00 0.00 0.00 80 1010.6
20260509011625 77 175 1.0 4.0 0.00 0.00 0.00 79 1010.5
20260509010620 77 144 1.0 4.0 0.00 0.00 0.00 79 1010.4
20260509005616 77 192 2.0 5.0 0.00 0.00 0.00 79 1010.4
20260509004632 78 169 1.0 4.0 0.00 0.00 0.00 79 1010.3
20260509003628 77 202 0.0 3.0 0.00 0.00 0.00 78 1010.2
20260509002625 78 134 1.0 4.0 0.00 0.00 0.00 77 1010.3
20260509001628 78 116 1.0 5.0 0.00 0.00 0.00 76 1010.3
20260509000625 79 161 2.0 4.0 0.00 0.00 0.00 75 1010.4
20260508235623 79 182 1.0 3.0 0.00 0.00 0.00 76 1010.3
20260508234637 79 178 1.0 4.0 0.00 0.00 0.00 75 1010.3
20260508233631 80 165 1.0 3.0 0.00 0.00 0.00 74 1010.3
20260508232626 80 152 1.0 5.0 0.00 0.00 0.00 74 1010.1
20260508231623 79 148 2.0 6.0 0.00 0.00 0.00 75 1010.2
20260508230620 80 146 1.0 3.0 0.00 0.00 0.00 74 1010.4
20260508225617 79 145 1.0 4.0 0.00 0.00 0.00 74 1010.4
20260508224613 79 194 2.0 7.0 0.00 0.00 0.00 74 1010.3
20260508223612 80 173 1.0 5.0 0.00 0.00 0.00 74 1010.3
20260508222650 79 194 1.0 5.0 0.00 0.00 0.00 74 1010.3
20260508221645 80 158 0.0 3.0 0.00 0.00 0.00 72 1010.4
20260508220623 80 92 3.0 9.0 0.00 0.00 0.00 71 1010.4
20260508215620 81 103 2.0 7.0 0.00 0.00 0.00 71 1010.4
20260508214619 80 127 1.0 4.0 0.00 0.00 0.00 72 1010.5
20260508213616 81 188 1.0 7.0 0.00 0.00 0.00 71 1010.6
20260508212611 80 110 0.0 4.0 0.00 0.00 0.00 71 1010.7
20260508211627 81 109 1.0 4.0 0.00 0.00 0.00 72 1010.8
20260508210624 79 162 0.0 5.0 0.00 0.00 0.00 72 1011.0
20260508205624 78 80 1.0 6.0 0.00 0.00 0.00 75 1011.2
20260508204621 79 209 2.0 6.0 0.00 0.00 0.00 73 1011.3
20260508203638 80 110 1.0 5.0 0.00 0.00 0.00 72 1011.3
20260508202613 80 125 1.0 6.0 0.00 0.00 0.00 72 1011.6
20260508201611 80 111 3.0 9.0 0.00 0.00 0.00 72 1011.5
20260508200628 79 90 1.0 9.0 0.00 0.00 0.00 73 1011.7
20260508195627 81 122 2.0 10.0 0.00 0.00 0.00 69 1011.7
20260508194623 80 101 1.0 7.0 0.00 0.00 0.00 72 1011.6
20260508193622 82 132 1.0 8.0 0.00 0.00 0.00 69 1011.9
20260508192617 79 139 0.0 7.0 0.00 0.00 0.00 71 1012.0
20260508191613 79 118 3.0 9.0 0.00 0.00 0.00 71 1012.2
20260508190630 77 91 1.0 4.0 0.00 0.00 0.00 74 1012.3
20260508185628 77 123 1.0 6.0 0.00 0.00 0.00 74 1012.4
20260508184623 77 91 2.0 6.0 0.00 0.00 0.00 73 1012.5
20260508183640 77 75 1.0 6.0 0.00 0.00 0.00 72 1012.6
20260508182616 78 61 2.0 6.0 0.00 0.00 0.00 72 1012.9
20260508181611 78 94 1.0 5.0 0.00 0.00 0.00 71 1013.0
20260508180612 78 117 3.0 8.0 0.00 0.00 0.00 70 1013.1
20260508175625 79 122 2.0 6.0 0.00 0.00 0.00 69 1013.3
20260508174642 78 108 3.0 7.0 0.00 0.00 0.00 71 1013.3
20260508173617 78 86 2.0 9.0 0.00 0.00 0.00 72 1013.4
20260508172617 77 88 3.0 7.0 0.00 0.00 0.00 72 1013.3
20260508171612 77 125 1.0 2.0 0.00 0.00 0.00 72 1013.5
20260508170628 77 80 0.0 2.0 0.00 0.00 0.00 70 1013.6
20260508165623 78 5 1.0 2.0 0.00 0.00 0.00 70 1013.4
20260508164616 76 51 0.0 2.0 0.00 0.00 0.00 71 1013.5
20260508163613 78 87 1.0 4.0 0.00 0.00 0.00 69 1013.7
20260508162630 76 130 0.0 2.0 0.00 0.00 0.00 71 1013.9
20260508161629 75 132 0.0 2.0 0.00 0.00 0.00 72 1014.0
20260508160622 72 126 0.0 2.0 0.00 0.00 0.00 74 1014.3
20260508155740 70 82 0.0 0.0 0.00 0.00 0.00 78 1014.5
20260508154643 70 322 0.0 1.0 0.00 0.00 0.00 75 1014.5
20260508153619 70 119 0.0 1.0 0.00 0.00 0.00 75 1014.7
20260508152615 70 125 0.0 3.0 0.00 0.00 0.00 72 1014.8
20260508151612 68 78 0.0 0.0 0.00 0.00 0.00 75 1014.8
20260508150630 67 210 0.0 0.0 0.00 0.00 0.00 77 1015.0
20260508145627 66 197 0.0 2.0 0.00 0.00 0.00 78 1015.2
20260508144624 66 140 1.0 3.0 0.00 0.00 0.00 78 1015.1
20260508143619 65 105 1.0 2.0 0.00 0.00 0.00 79 1015.0
20260508142637 64 163 0.0 2.0 0.00 0.00 0.00 80 1015.2
20260508141612 64 123 1.0 3.0 0.00 0.00 0.00 80 1015.1
20260508140630 64 91 0.0 2.0 0.00 0.00 0.00 81 1015.2
20260508135627 63 74 1.0 3.0 0.00 0.00 0.00 81 1015.0
20260508134627 63 46 0.0 0.0 0.00 0.00 0.00 82 1015.1
20260508133624 62 59 0.0 2.0 0.00 0.00 0.00 82 1015.1
20260508132621 62 105 0.0 2.0 0.00 0.00 0.00 82 1015.2
20260508131614 62 63 1.0 2.0 0.00 0.00 0.00 83 1015.2
20260508130611 62 339 0.0 2.0 0.00 0.00 0.00 83 1015.3
20260508125628 62 338 1.0 3.0 0.00 0.00 0.00 83 1015.1
20260508124645 61 345 0.0 3.0 0.00 0.00 0.00 84 1015.4
20260508123642 61 17 0.0 2.0 0.00 0.00 0.00 84 1015.3
20260508122615 61 19 0.0 3.0 0.00 0.00 0.00 84 1015.3
20260508121633 61 355 1.0 4.0 0.00 0.00 0.00 84 1015.1
20260508120628 61 325 1.0 2.0 0.00 0.00 0.00 84 1015.4
20260508115624 61 13 1.0 2.0 0.00 0.00 0.00 84 1015.4
20260508114620 62 345 0.0 0.0 0.00 0.00 0.00 83 1015.8
20260508113616 62 15 0.0 0.0 0.00 0.00 0.00 81 1015.7
20260508112613 62 12 0.0 0.0 0.00 0.00 0.00 81 1015.8
20260508111631 62 5 0.0 0.0 0.00 0.00 0.00 81 1016.0
20260508110629 61 19 0.0 3.0 0.00 0.00 0.00 81 1015.8
20260508105626 61 27 0.0 4.0 0.00 0.00 0.00 81 1015.7
20260508104622 61 24 1.0 4.0 0.00 0.00 0.00 81 1015.6
20260508103641 61 336 2.0 6.0 0.00 0.00 0.00 81 1015.6
20260508102616 61 355 1.0 4.0 0.00 0.00 0.00 81 1015.7
20260508101617 61 26 0.0 4.0 0.00 0.00 0.00 82 1015.5
20260508100615 61 310 1.0 2.0 0.00 0.00 0.00 82 1015.3
20260508095611 61 24 0.0 2.0 0.00 0.00 0.00 83 1015.5
20260508094646 61 326 0.0 2.0 0.00 0.00 0.00 83 1015.5
20260508093641 61 321 0.0 3.0 0.00 0.00 0.00 83 1015.5
20260508092617 62 321 0.0 0.0 0.00 0.00 0.00 83 1015.8
20260508091614 62 350 0.0 0.0 0.00 0.00 0.00 83 1015.8
20260508090631 61 34 0.0 0.0 0.00 0.00 0.00 83 1015.7
20260508085628 62 34 0.0 0.0 0.00 0.00 0.00 83 1015.3
20260508084624 62 34 0.0 0.0 0.00 0.00 0.00 80 1015.4
20260508083621 62 34 0.0 0.0 0.00 0.00 0.00 78 1015.6
20260508082617 62 12 0.0 1.0 0.00 0.00 0.00 79 1015.6
20260508081613 62 21 0.0 0.0 0.00 0.00 0.00 78 1015.8
20260508080629 62 59 0.0 0.0 0.00 0.00 0.00 78 1015.6
20260508075626 62 61 0.0 0.0 0.00 0.00 0.00 77 1015.8
20260508074622 62 60 0.0 2.0 0.00 0.00 0.00 78 1015.6
20260508073620 62 39 0.0 2.0 0.00 0.00 0.00 78 1015.8
20260508072637 62 70 0.0 3.0 0.00 0.00 0.00 78 1015.9
20260508071613 62 11 0.0 4.0 0.00 0.00 0.00 78 1015.6
20260508070614 62 29 0.0 2.0 0.00 0.00 0.00 78 1015.6
20260508065612 62 26 0.0 3.0 0.00 0.00 0.00 78 1015.7
20260508064628 62 342 1.0 3.0 0.00 0.00 0.00 78 1015.9
20260508063625 62 47 0.0 1.0 0.00 0.00 0.00 79 1016.3
20260508062622 62 38 0.0 2.0 0.00 0.00 0.00 78 1016.5
20260508061620 62 55 0.0 1.0 0.00 0.00 0.00 78 1016.6
20260508060617 61 32 0.0 0.0 0.00 0.00 0.00 78 1016.6
20260508055614 61 34 0.0 2.0 0.00 0.00 0.00 78 1016.4
20260508054611 61 39 0.0 0.0 0.00 0.00 0.00 78 1016.3
20260508053650 61 355 0.0 2.0 0.00 0.00 0.00 78 1016.7
20260508052623 61 290 0.0 2.0 0.00 0.00 0.00 78 1016.7
20260508051621 61 351 0.0 2.0 0.00 0.00 0.00 79 1016.5
20260508050617 61 11 0.0 3.0 0.00 0.00 0.00 79 1016.5
20260508045634 61 47 0.0 4.0 0.00 0.00 0.00 78 1016.4
20260508044610 61 316 2.0 7.0 0.00 0.00 0.00 79 1016.9
20260508043626 61 295 0.0 2.0 0.00 0.00 0.00 79 1016.7
20260508042622 61 67 0.0 1.0 0.00 0.00 0.00 79 1015.9
20260508041620 61 46 0.0 2.0 0.00 0.00 0.00 79 1016.4
20260508040637 62 30 0.0 2.0 0.00 0.00 0.00 78 1016.4
20260508035612 62 38 0.0 0.0 0.00 0.00 0.00 77 1016.9
20260508034613 62 120 0.0 1.0 0.00 0.00 0.00 77 1016.8
20260508033630 62 53 0.0 2.0 0.00 0.00 0.00 76 1017.1
20260508032624 63 315 0.0 2.0 0.00 0.00 0.00 75 1017.4
20260508031637 63 290 0.0 2.0 0.00 0.00 0.00 75 1017.6
20260508030613 63 296 0.0 2.0 0.00 0.00 0.00 75 1017.5
20260508025651 63 53 0.0 2.0 0.00 0.00 0.00 74 1017.1
20260508024626 63 58 0.0 2.0 0.00 0.00 0.00 73 1016.5